STARLINK-2492, 48149

Orbit data source: Space-Track

STARLINK-2492, 48149 is a payload satellite owned by SpaceX/Seattle (US) in LEO that was launched on Wed, 07 Apr 2021 UTC via an FALCON 9 launch vehicle from the Air Force Eastern Test Range (AFETR). Payload-class satellites include a variety of spacecraft equipped with specific instruments for various scientific and technological missions. These include communications satellites like Starlink; space stations such as the ISS; scientific satellites like the Hubble; Earth observation satellites from companies like Planet Labs, Umbra, and HawkEye 360; GPS; miniature CubeSats for education and research; and military/defense satellites.

Loading next visibility...
Identifier
48149, 2021-027BK
Orbit
LEO
Country
Flag of USUS
Related business
Manufacturer
SpaceX/Seattle
Mission
Operational Commercial Communications
Bus & Motor
STARLINK, Unknown motor
Mass
260 kg wet, ~248 kg dry
Launch date (UTC)
2021-04-07 (5 years ago)
Launch vehicle
FALCON 9
Launch site
Air Force Eastern Test Range (AFETR)
Object type
Payload
Rocket body
Debris
Shape & HBR
Box + 1 Pan, 10.1 m
Radar Cross Section
13.562 m², Large (>1 m²)

Expand to show TLE details & history
Last TLE update: 2 days ago

TLE from 2 days ago
0 STARLINK-2492
1 48149U 21027BK  26171.36054029  .00003485  00000-0  12402-3 0  9996
2 48149  53.1615  35.3053 0001312 101.9109 258.2040 15.31697071288409
Epoch: 2026-06-20T08:39Z
TLE epoch observation values (Epoch: 2026-06-20T08:39:10.681Z)
Latitude
0.00003°
Longitude
-3.06546°
Altitude
471.833 km
Speed
7.631 km/s
True Right ascension
02h 21m 13s
True Declination
0° 00' 00"
Sunlit
Object was in daylight at epoch
Visualization orbit readout
Latitude
Unknown
Longitude
Unknown
Altitude
Unknown
Speed
Unknown
Apparent Right ascension
Unknown
Apparent Declination
Unknown
Sunlit
N/A
Visualization observer readout
Local Sidereal Time
23:08:47
Azimuth
Unknown
Elevation
Unknown
Doppler factor
Unknown
Orbital elements
Apogee altitude
471.904 km
Perigee altitude
470.106 km
Semi-major axis
6,849.142 km
Eccentricity
0.00013
Inclination
53.1615°
RAAN
35.3053°
Arg. of periapsis
101.9109°
True anomaly
258.18928°
Mean anomaly
258.204°
Eccentric anomaly
258.19664°
Mean motion
3.82903 °/min
Orbital period
94.02 mins
BSTAR
0.00012402
Loading maneuver chart data...
Computing Atmospheric mass density...

Documentation

Showing up to 5 results
|